Weather History for KRDU - February, 2014

Change the Weather History Date:

Saturday, February 22, 2014

  Actual Average Record
Temperature  
Mean Temperature 50 °F 46 °F  
Max Temperature 64 °F 57 °F 75 °F (1897)
Min Temperature 36 °F 35 °F 11 °F (1968)
Degree Days  
Heating Degree Days 15 19  
Month to date heating degree days 465 465  
Since 1 July heating degree days 2569 2462  
Cooling Degree Days 0 0  
Month to date cooling degree days 0 0  
Year to date cooling degree days 0 0  
Moisture  
Dew Point 28 °F    
Average Humidity 56    
Maximum Humidity 92    
Minimum Humidity 19    
Precipitation  
Precipitation 0.00 in 0.13 in 1.40 in (1889)
Month to date precipitation 3.00 2.50  
Year to date precipitation 4.96 6.00  
Snow  
Snow 0.00 in 0.10 in 3.20 in (1978)
Month to date snowfall 3.7 1.6  
Since 1 July snowfall 5.6 5.2  
Snow Depth 0.00 in    
Sea Level Pressure  
Sea Level Pressure 30.13 in    
Wind  
Wind Speed 2 mph (SE)    
Max Wind Speed 8 mph    
Max Gust Speed 10 mph    
Visibility 10 miles    
Events Fog    
T = Trace of Precipitation, MM = Missing Value Source: NWS Daily Summary

Daily Weather History Graph

Daily Weather History Graph

Search for Another Location

Airport or City:

Trip Planner

Search our weather history database for the weather conditions in past years. The results will help you decide how hot, cold, wet, or windy it might be!

Date:

Astronomy

Feb. 22, 2014 Rise Set
Actual Time 6:54 AM EST 6:03 PM EST
Civil Twilight 6:28 AM EST 6:29 PM EST
Nautical Twilight 5:58 AM EST 6:59 PM EST
Astronomical Twilight 5:28 AM EST 7:28 PM EST
Moon 12:43 AM EST (2/22) 11:17 AM EST (2/22)
Length of Visible Light 12h 01m
Length of Day
11h 09m
Waning Gibbous, 50% of the Moon is Illuminated
Feb 22
Waning Gibbous
Feb 22
Last Quarter
Mar 1
New
Mar 8
First Quarter
Mar 16
Full

Hourly Weather History & Observations

Time (EST) Temp. Windchill Dew Point Humidity Pressure Visibility Wind Dir Wind Speed Gust Speed Precip Events Conditions
12:51 AM 41.0 °F - 37.9 °F 89% 30.04 in 10.0 mi Calm Calm - N/A Fog Patches of Fog
1:51 AM 37.9 °F - 35.1 °F 89% 30.06 in 10.0 mi Calm Calm - N/A Fog Patches of Fog
2:51 AM 36.0 °F - 34.0 °F 93% 30.08 in 10.0 mi Calm Calm - N/A   Partly Cloudy
3:51 AM 39.0 °F 35.7 °F 32.0 °F 76% 30.09 in 10.0 mi NW 4.6 mph - N/A   Partly Cloudy
4:51 AM 41.0 °F 39.0 °F 28.0 °F 60% 30.09 in 10.0 mi North 3.5 mph - N/A   Scattered Clouds
5:51 AM 39.9 °F - 28.9 °F 65% 30.13 in 10.0 mi Calm Calm - N/A   Mostly Cloudy
6:51 AM 37.9 °F - 30.9 °F 76% 30.14 in 10.0 mi Calm Calm - N/A   Mostly Cloudy
7:51 AM 37.9 °F - 34.0 °F 86% 30.17 in 10.0 mi Calm Calm - N/A   Mostly Cloudy
8:51 AM 46.0 °F - 33.1 °F 61% 30.19 in 10.0 mi Calm Calm - N/A   Mostly Cloudy
9:51 AM 51.1 °F - 28.9 °F 43% 30.21 in 10.0 mi NNE 3.5 mph - N/A   Mostly Cloudy
10:51 AM 55.0 °F - 26.1 °F 33% 30.19 in 10.0 mi North 3.5 mph - N/A   Mostly Cloudy
11:51 AM 57.0 °F - 26.1 °F 30% 30.18 in 10.0 mi Calm Calm - N/A   Mostly Cloudy
12:51 PM 57.9 °F - 21.9 °F 25% 30.16 in 10.0 mi Calm Calm - N/A   Mostly Cloudy
1:51 PM 60.1 °F - 24.1 °F 25% 30.13 in 10.0 mi ESE 3.5 mph - N/A   Partly Cloudy
2:51 PM 62.1 °F - 21.9 °F 21% 30.11 in 10.0 mi ENE 3.5 mph - N/A   Partly Cloudy
3:51 PM 63.0 °F - 21.0 °F 20% 30.10 in 10.0 mi Variable 3.5 mph - N/A   Scattered Clouds
4:51 PM 63.0 °F - 19.9 °F 19% 30.10 in 10.0 mi Calm Calm - N/A   Scattered Clouds
5:51 PM 59.0 °F - 21.9 °F 24% 30.11 in 10.0 mi Calm Calm - N/A   Scattered Clouds
6:51 PM 52.0 °F - 30.0 °F 43% 30.12 in 10.0 mi SSE 3.5 mph - N/A   Scattered Clouds
7:51 PM 51.1 °F - 28.9 °F 43% 30.13 in 10.0 mi South 3.5 mph - N/A   Scattered Clouds
8:51 PM 48.0 °F - 30.9 °F 52% 30.14 in 10.0 mi South 3.5 mph - N/A   Scattered Clouds
9:51 PM 48.9 °F - 27.0 °F 43% 30.13 in 10.0 mi South 5.8 mph - N/A   Scattered Clouds
10:51 PM 48.9 °F - 26.1 °F 41% 30.13 in 10.0 mi South 3.5 mph - N/A   Scattered Clouds
11:51 PM 46.0 °F - 27.0 °F 47% 30.12 in 10.0 mi Calm Calm - N/A   Partly Cloudy